Regional Weather Roundup
Issued by NWS Mt. Holly, NJ

Home | Current Version | Previous Version | Text Only | Print | Product List | Glossary On
Versions: 1 2 3 4 5 6 7 8 9 10 11 12 13 14 15 16 17 18 19 20 21 22 23 24 25 26 27 28 29 30 31 32 33 34 35 36 37 38 39 40 41 42 43 44 45 46 47 48 49 50
000
ASUS41 KPHI 282012
RWRPHI

REGIONAL WEATHER ROUNDUP
NATIONAL WEATHER SERVICE MOUNT HOLLY NJ
400 PM EDT WED SEP 28 2016

NOTE:  "FAIR" INDICATES FEW OR NO CLOUDS BELOW 12,000 FEET WITH NO
SIGNIFICANT WEATHER AND/OR OBSTRUCTIONS TO VISIBILITY.

 * = STATION DOES NOT REPORT PRECIPITATION (E.G. RAIN, SNOW, ETC.)
        OR FOG.

NJZ015>026-282100-
SOUTHERN NEW JERSEY

CITY           SKY/WX    TMP DP  RH WIND       PRES   REMARKS
POMONA         CLOUDY    68  64  87 NE21G29   30.05S
WILDWOOD*        N/A     71  67  87 E17G23    30.03S
MILLVILLE      CLOUDY    70  67  90 E12       30.04S
WRIGHTSTOWN    CLOUDY    64  63  94 NE16G23   30.07R
MOUNT HOLLY    CLOUDY    68  62  81 E8G21     30.08R
TRENTON        CLOUDY    69  60  73 E14G20    30.09R

$$
NJZ001>014-282100-
NORTHERN NEW JERSEY

CITY           SKY/WX    TMP DP  RH WIND       PRES   REMARKS
SUSSEX         PTSUNNY   68  57  68 NE13G18   30.13F
ANDOVER*         N/A     66  56  70 VRB3      30.13S
MORRISTOWN     PTSUNNY   66  59  77 E14G21    30.12
NEWARK         PTSUNNY   68  57  68 NE17      30.12S
TETERBORO      CLOUDY    67  54  63 NE13G20   30.12S
CALDWELL       CLOUDY    66  56  70 E9        30.13S
SOMERVILLE     CLOUDY    71  58  63 E6        30.09S
ALLAIRE*       CLOUDY    63  60  90 NE17G24   30.11S
TOMS RIVER*    LGT RAIN  63  63 100 NE16G22   30.11R FOG

$$
PAZ043-044-047-054-055-060>062-066>071-282100-
EASTERN PENNSYLVANIA

CITY           SKY/WX    TMP DP  RH WIND       PRES   REMARKS
PHILADELPHIA   CLOUDY    71  63  75 E13       30.07S
NORTH PHILA    CLOUDY    71  63  75 E15G24    30.09R
BLUE BELL*     CLOUDY    68  63  83 E12G17    30.08R
DOYLESTOWN     LGT RAIN  69  62  78 VRB3      30.09R
QUAKERTOWN*    CLOUDY    68  59  73 E10       30.10S
PERKASIE*      CLOUDY    68  59  73 E10       30.11R
POTTSTOWN      LGT RAIN  67  62  84 E7        30.10R
LANCASTER      LGT RAIN  67  65  93 E9        30.06S
COATESVILLE    LGT RAIN  66  64  94 E10G17    30.08S
READING        LGT RAIN  66  61  84 NE6       30.06S
ALLENTOWN      CLOUDY    69  59  70 E8        30.10R
MOUNT POCONO   CLOUDY    60  52  74 E9G20     30.14R
HAZLETON       CLOUDY    63  54  72 E8        30.15R
LEHIGHTON      RAIN      68  57  68 E8        30.11R
WILKES BARRE   PTSUNNY   67  54  63 CALM      30.12R

$$
DEZALL-MDZ008-012-015-019-020-282100-
DELAWARE AND EASTERN MARYLAND

CITY           SKY/WX    TMP DP  RH WIND       PRES   REMARKS
WILMINGTON     LGT RAIN  69  65  86 NE10      30.05F
DOVER          CLOUDY    71  71 100 E18       30.01S
GEORGETOWN     CLOUDY    71  68  90 E13G22    30.02S
EASTON         PTSUNNY   73  66  78 E14       30.03S
ABERDEEN       PTSUNNY   70  66  88 E8        30.02F
PATUXENT       TSTM      70  66  87 SE20G28   29.96F FOG
OCEAN CITY     LGT RAIN  74  70  87 E14G22    29.99F
WALLOPS ISLAND CLOUDY    74  70  87 NE15      30.00F
CAMBRIDGE      CLOUDY    70  64  83 E12       29.99S
SALISBURY      CLOUDY    71  69  93 E10       30.00S

$$
PAZ001-021-NYZ056-072-MDZ011-DCZ001-282100-
OTHER NEARBY LOCATIONS

CITY           SKY/WX    TMP DP  RH WIND       PRES   REMARKS
HARRISBURG     LGT RAIN  67  63  87 E9        30.05F
STATE COLLEGE  PTSUNNY   68  48  49 SE12G25   30.05R
WILLIAMSPORT   CLOUDY    72  54  53 E16G22    30.07R
BINGHAMTON     MOSUNNY   63  50  62 SE15G21   30.13S
NEW YORK CITY  CLOUDY    66  55  67 E15G26    30.15F
BALTIMORE      LGT RAIN  67  63  87 NE14      30.00F
WASHINGTON DC  CLOUDY    69  67  93 NE8       29.99S

$$



USA.gov is the U.S. government's official web portal to all federal, state and local government web resources and services.